Location: Alafon
(8.4500°N, 4.2333°E)
Time: 23:34:13
(UTC+00:00)

Explorer 7 - Pass Details

Date: 28 July 2021
Orbit: 484 x 676 km, 50.3° (Epoch: 22 September)

Event Time Altitude Azimuth Distance (km) Brightness Sun altitude
Rises 15:06:09 0° 306° (NW) 2,957 11.3 41.3°
Reaches altitude 10° 15:08:39 10° 297° (WNW) 2,068 10.9 40.7°
Maximum altitude 15:12:55 32° 234° (SW) 1,142 9.3 39.7°
Drops below altitude 10° 15:17:16 10° 171° (S) 2,102 9.7 38.7°
Sets 15:19:50 0° 161° (SSE) 3,013 10.3 38.1°
